• In Russia
  • List of Countries
  • For 7 days
  • Water Temperature
  • Weather Map
  • Weather Widgets
  • user-avatar
    Login

    Hourly Weather Abovyan

    Today, 23 September, Monday

    Time Temperature Precipitation Wind Pressure Humidity
    00:00 +13°C° 0 mm 2 mps 673 mmHg 43%
    01:00 +12°C° 0 mm 1 mps 672 mmHg 44%
    02:00 +12°C° 0 mm 1 mps 672 mmHg 45%
    03:00 +11°C° 0 mm 1 mps 672 mmHg 46%
    04:00 +11°C° 0 mm 1 mps 672 mmHg 46%
    05:00 +11°C° 0 mm 1 mps 672 mmHg 47%
    06:00 +11°C° 0 mm 1 mps 672 mmHg 48%
    07:00 +13°C° 0 mm 1 mps 672 mmHg 43%
    08:00 +16°C° 0 mm 1 mps 672 mmHg 37%
    09:00 +19°C° 0 mm 1 mps 673 mmHg 31%
    10:00 +19°C° 0 mm 2 mps 673 mmHg 29%
    11:00 +21°C° 0 mm 2 mps 673 mmHg 27%
    12:00 +23°C° 0 mm 2 mps 672 mmHg 25%
    13:00 +24°C° 0 mm 2 mps 672 mmHg 24%
    14:00 +24°C° 0 mm 2 mps 672 mmHg 23%
    15:00 +25°C° 0 mm 2 mps 671 mmHg 21%
    16:00 +23°C° 0 mm 1 mps 671 mmHg 25%
    17:00 +21°C° 0 mm 1 mps 670 mmHg 29%
    18:00 +17°C° 0 mm 0 mps 670 mmHg 33%
    19:00 +19°C° 0 mm 1 mps 670 mmHg 33%
    20:00 +18°C° 0 mm 1 mps 671 mmHg 34%
    21:00 +18°C° 0 mm 1 mps 671 mmHg 35%
    22:00 +16°C° 0 mm 1 mps 671 mmHg 36%
    23:00 +16°C° 0 mm 1 mps 671 mmHg 37%

    Tomorrow, 24 September, Tuesday

    Time Temperature Precipitation Wind Pressure Humidity
    00:00 +15°C° 0 mm 1 mps 671 mmHg 38%
    01:00 +15°C° 0 mm 1 mps 671 mmHg 40%
    02:00 +14°C° 0 mm 1 mps 671 mmHg 43%
    03:00 +14°C° 0 mm 1 mps 671 mmHg 46%
    04:00 +13°C° 0 mm 1 mps 671 mmHg 47%
    05:00 +13°C° 0 mm 1 mps 671 mmHg 49%
    06:00 +13°C° 0 mm 1 mps 671 mmHg 50%
    07:00 +15°C° 0 mm 1 mps 671 mmHg 43%
    08:00 +19°C° 0 mm 1 mps 672 mmHg 37%
    09:00 +21°C° 0 mm 1 mps 673 mmHg 31%
    10:00 +23°C° 0 mm 2 mps 673 mmHg 27%
    11:00 +24°C° 0 mm 2 mps 672 mmHg 24%
    12:00 +25°C° 0 mm 2 mps 672 mmHg 20%
    13:00 +26°C° 0 mm 2 mps 672 mmHg 19%
    14:00 +27°C° 0 mm 2 mps 672 mmHg 17%
    15:00 +27°C° 0 mm 2 mps 672 mmHg 16%
    16:00 +25°C° 0 mm 2 mps 671 mmHg 19%
    17:00 +23°C° 0 mm 2 mps 671 mmHg 22%
    18:00 +20°C° 0 mm 2 mps 670 mmHg 24%
    19:00 +20°C° 0 mm 2 mps 670 mmHg 25%
    20:00 +19°C° 0 mm 2 mps 671 mmHg 26%
    21:00 +19°C° 0 mm 2 mps 671 mmHg 27%
    22:00 +18°C° 0 mm 2 mps 671 mmHg 29%
    23:00 +17°C° 0 mm 2 mps 670 mmHg 31%

    Day after tomorrow, 25 September, Wednesday

    Time Temperature Precipitation Wind Pressure Humidity
    00:00 +16°C° 0 mm 1 mps 670 mmHg 34%
    01:00 +16°C° 0 mm 1 mps 670 mmHg 34%
    02:00 +15°C° 0 mm 1 mps 670 mmHg 35%
    03:00 +15°C° 0 mm 1 mps 670 mmHg 36%
    04:00 +15°C° 0 mm 1 mps 670 mmHg 37%
    05:00 +14°C° 0 mm 1 mps 670 mmHg 38%
    06:00 +14°C° 0 mm 1 mps 670 mmHg 39%
    07:00 +18°C° 0 mm 1 mps 670 mmHg 34%
    08:00 +21°C° 0 mm 1 mps 671 mmHg 28%
    09:00 +23°C° 0 mm 2 mps 672 mmHg 22%
    10:00 +25°C° 0 mm 2 mps 672 mmHg 20%
    11:00 +26°C° 0 mm 2 mps 672 mmHg 18%
    12:00 +27°C° 0 mm 3 mps 672 mmHg 16%
    13:00 +28°C° 0 mm 2 mps 672 mmHg 16%
    14:00 +28°C° 0 mm 2 mps 672 mmHg 15%
    15:00 +29°C° 0 mm 2 mps 671 mmHg 15%
    16:00 +27°C° 0 mm 2 mps 671 mmHg 17%
    17:00 +25°C° 0 mm 2 mps 671 mmHg 19%
    18:00 +23°C° 0 mm 2 mps 671 mmHg 21%
    19:00 +21°C° 0 mm 2 mps 671 mmHg 21%
    20:00 +21°C° 0 mm 2 mps 671 mmHg 22%
    21:00 +20°C° 0 mm 2 mps 672 mmHg 22%
    22:00 +20°C° 0 mm 2 mps 671 mmHg 23%
    23:00 +20°C° 0 mm 1 mps 671 mmHg 24%

    26 September, Thursday

    Time Temperature Precipitation Wind Pressure Humidity
    00:00 +19°C° 0 mm 1 mps 671 mmHg 25%
    01:00 +19°C° 0 mm 1 mps 671 mmHg 25%
    02:00 +19°C° 0 mm 1 mps 671 mmHg 26%
    03:00 +19°C° 0 mm 1 mps 672 mmHg 26%
    04:00 +19°C° 0 mm 1 mps 672 mmHg 27%
    05:00 +18°C° 0 mm 1 mps 672 mmHg 28%
    06:00 +18°C° 0 mm 1 mps 672 mmHg 29%
    07:00 +19°C° 0 mm 2 mps 672 mmHg 26%
    08:00 +23°C° 0 mm 2 mps 673 mmHg 24%
    09:00 +25°C° 0 mm 2 mps 673 mmHg 21%
    10:00 +27°C° 0 mm 3 mps 673 mmHg 20%
    11:00 +28°C° 0 mm 3 mps 673 mmHg 19%
    12:00 +29°C° 0 mm 3 mps 673 mmHg 18%
    13:00 +30°C° 0 mm 4 mps 673 mmHg 17%
    14:00 +30°C° 0 mm 4 mps 672 mmHg 16%
    15:00 +32°C° 0 mm 4 mps 672 mmHg 15%
    16:00 +29°C° 0 mm 3 mps 671 mmHg 17%
    17:00 +27°C° 0 mm 2 mps 671 mmHg 19%
    18:00 +24°C° 0 mm 2 mps 670 mmHg 21%
    19:00 +24°C° 0 mm 2 mps 671 mmHg 23%
    20:00 +23°C° 0 mm 2 mps 671 mmHg 24%
    21:00 +21°C° 0 mm 2 mps 671 mmHg 25%
    22:00 +20°C° 0 mm 2 mps 671 mmHg 28%
    23:00 +20°C° 0 mm 2 mps 671 mmHg 30%

    27 September, Friday

    Time Temperature Precipitation Wind Pressure Humidity
    00:00 +19°C° 0 mm 2 mps 671 mmHg 33%
    01:00 +19°C° 0 mm 2 mps 671 mmHg 35%
    02:00 +18°C° 0 mm 2 mps 671 mmHg 37%
    03:00 +18°C° 0 mm 2 mps 671 mmHg 39%
    04:00 +17°C° 0 mm 2 mps 671 mmHg 40%
    05:00 +17°C° 0 mm 2 mps 671 mmHg 42%
    06:00 +18°C° 0 mm 1 mps 671 mmHg 44%
    07:00 +20°C° 0 mm 1 mps 671 mmHg 38%
    08:00 +23°C° 0 mm 1 mps 672 mmHg 32%
    09:00 +26°C° 0 mm 2 mps 672 mmHg 27%
    10:00 +27°C° 0 mm 2 mps 672 mmHg 24%
    11:00 +28°C° 0 mm 2 mps 672 mmHg 22%
    12:00 +29°C° 0 mm 3 mps 672 mmHg 20%
    13:00 +30°C° 0 mm 3 mps 672 mmHg 19%
    14:00 +30°C° 0 mm 3 mps 672 mmHg 19%
    15:00 +31°C° 0 mm 3 mps 671 mmHg 18%
    16:00 +29°C° 0 mm 2 mps 671 mmHg 21%
    17:00 +27°C° 0 mm 2 mps 670 mmHg 24%
    18:00 +25°C° 0 mm 2 mps 670 mmHg 26%
    19:00 +24°C° 0 mm 2 mps 670 mmHg 27%
    20:00 +23°C° 0 mm 2 mps 670 mmHg 29%
    21:00 +22°C° 0 mm 1 mps 670 mmHg 30%
    22:00 +20°C° 0 mm 2 mps 670 mmHg 31%
    23:00 +20°C° 0 mm 2 mps 670 mmHg 33%

    28 September, Saturday

    Time Temperature Precipitation Wind Pressure Humidity
    00:00 +19°C° 0 mm 2 mps 670 mmHg 35%
    01:00 +20°C° 0 mm 1 mps 670 mmHg 37%
    02:00 +19°C° 0 mm 1 mps 670 mmHg 39%
    03:00 +19°C° 0 mm 1 mps 670 mmHg 40%
    04:00 +19°C° 0 mm 1 mps 670 mmHg 43%
    05:00 +18°C° 0 mm 1 mps 669 mmHg 46%
    06:00 +18°C° 0 mm 1 mps 669 mmHg 49%
    07:00 +20°C° 0 mm 1 mps 670 mmHg 43%
    08:00 +23°C° 0 mm 2 mps 670 mmHg 37%
    09:00 +25°C° 0 mm 2 mps 671 mmHg 31%
    10:00 +26°C° 0 mm 3 mps 671 mmHg 30%
    11:00 +27°C° 0 mm 4 mps 672 mmHg 30%
    12:00 +28°C° 0 mm 5 mps 672 mmHg 29%
    13:00 +28°C° 0 mm 6 mps 672 mmHg 30%
    14:00 +27°C° 0 mm 6 mps 671 mmHg 31%
    15:00 +27°C° 0 mm 6 mps 670 mmHg 31%
    16:00 +26°C° 0 mm 5 mps 670 mmHg 35%
    17:00 +23°C° 0 mm 5 mps 670 mmHg 39%
    18:00 +22°C° 0 mm 4 mps 670 mmHg 43%
    19:00 +20°C° 0 mm 4 mps 671 mmHg 45%
    20:00 +19°C° 0 mm 4 mps 671 mmHg 47%
    21:00 +18°C° 0 mm 3 mps 671 mmHg 49%
    22:00 +18°C° 0 mm 3 mps 671 mmHg 48%
    23:00 +18°C° 0 mm 3 mps 671 mmHg 47%
    Show more